Location: *
(50.2903°S, 172.5375°W)
Time: 00:11:45
(UTC+00:00)

Cosmos 2278 Rocket - Pass Details

Date: 17 November 2019
Orbit: 840 x 846 km, 71.0° (Epoch: 06 December)

Event Time Altitude Azimuth Distance (km) Brightness Sun altitude
Exits shadow 13:02:04 24° 307° (NW) 1,706 3.3 -16.8°
Maximum altitude 13:05:30 58° 235° (SW) 992 2.6 -16.6°
Drops below altitude 10° 13:11:10 10° 156° (SSE) 2,497 6.0 -16.1°
Sets 13:13:41 0° 151° (SSE) 3,438 7.3 -15.9°
